Location: Gouy
(50.0008°N, 3.2556°E)
Time: 07:43:01
(UTC+00:00)

Cosmos 2151 Rocket - Pass Details

Date: 16 August 2024
Orbit: 615 x 637 km, 82.5° (Epoch: 07 September)

Event Time Altitude Azimuth Distance (km) Brightness Sun altitude
Rises 03:57:20 0° 156° (SSE) 2,894 6.9 -6.8°
Reaches altitude 10° 03:59:50 10° 143° (SE) 1,997 6.3 -6.4°
Maximum altitude 04:03:27 25° 88° (E) 1,267 6.1 -5.9°
Drops below altitude 10° 04:07:07 10° 33° (NNE) 2,023 7.3 -5.4°
Sets 04:09:40 0° 20° (NNE) 2,940 7.9 -5.1°
